Regional Weather Roundup
Issued by NWS Kansas City/Pleasant Hill, MO

Home | Current Version | Previous Version | Text Only | Print | Product List | Glossary On
Versions: 1 2 3 4 5 6 7 8 9 10 11 12 13 14 15 16 17 18 19 20 21 22 23 24 25 26 27 28 29 30 31 32 33 34 35 36 37 38 39 40 41 42 43 44 45 46 47 48 49 50
000
ASUS43 KEAX 022011
RWREAX

WEATHER ROUNDUP FOR EASTERN KANSAS AND NORTHWEST MISSOURI
NATIONAL WEATHER SERVICE KANSAS CITY/PLEASANT HILL MO
200 PM CST MON MAR 02 2015

KSZ040-057-103>105-MOZ028-029-037-043-022100-
...KANSAS CITY METROPOLITAN AREA...

CITY           SKY/WX    TMP DP  RH WIND       PRES   REMARKS
K.C. INTL      CLOUDY    39  19  44 E13       30.33F WCI  31
K.C. DOWNTOWN  MOSUNNY   39  18  42 SE10      30.34F WCI  32
LEES SUMMIT    PTSUNNY   37  20  50 SE12      30.34F WCI  29
OLATHE - IXD   PTSUNNY   35  20  54 SE14      30.34F WCI  26
OLATHE - OJC   PTSUNNY   37  20  50 E15       30.32F WCI  28
LAWRENCE       MOSUNNY   39  19  44 SE15G22   30.33F WCI  31

$$

MOZ001>008-011>017-020>025-030>033-038>040-044>046-053-054-022100-
...NORTHERN AND CENTRAL MISSOURI...

CITY           SKY/WX    TMP DP  RH WIND       PRES   REMARKS
ST. JOSEPH     PTSUNNY   42  21  43 S10       30.34F
MOSBY          CLEAR     36  21  55 SE13      30.35F WCI  27
WARRENSBURG    MOSUNNY   36  21  55 E8        30.37F WCI  29
WHITEMAN AFB   PTSUNNY   35  19  53 E8        30.35F WCI  28
CLINTON        PTSUNNY   37  21  52 SE9       30.35F WCI  31
SEDALIA        MOSUNNY   35  18  49 E12       30.37F WCI  27
WARSAW         NOT AVBL
MARSHALL       SUNNY     37  23  56 E12       30.44F WCI  30
CHILLICOTHE      N/A     38  22  52 SE10G17   30.38F WCI  31
MOBERLY        MOSUNNY   37  18  44 E10       30.42F WCI  30
KIRKSVILLE     PTSUNNY   32  22  66 SE9       30.40F WCI  24

$$

MOZ041-047>049-056>058-063>065-088>090-097-022100-
...EASTERN AND SOUTHERN MISSOURI...

CITY           SKY/WX    TMP DP  RH WIND       PRES   REMARKS
ST. LOUIS INTL PTSUNNY   35  16  45 SE5       30.46F WCI  31
SPIRIT OF STL  MOSUNNY   36  16  44 SE10G16   30.44F WCI  28
COLUMBIA       MOSUNNY   35  18  49 E12       30.37F WCI  27
JEFFERSON CITY PTSUNNY   36  16  44 E8        30.40F WCI  30
MEXICO         MOSUNNY   37  25  60 E9        30.42F WCI  31
HANNIBAL       MOSUNNY   41  14  33 E9        30.41F
ROLLA          CLOUDY    34  16  47 E12       30.35F WCI  25
LEBANON        CLOUDY    41  18  38 E10       30.33F WCI  35
OSAGE BEACH    CLOUDY    37  18  44 E8        30.37F WCI  31
SPRINGFIELD    CLOUDY    38  19  46 E15       30.30F WCI  29
BRANSON        CLOUDY    36  23  60 E13       30.33F WCI  27
NEVADA         CLOUDY    36  21  55 E10       30.33F WCI  28
JOPLIN         CLOUDY    36  21  54 SE8       30.30F WCI  30
WEST PLAINS    CLOUDY    38  18  44 SE7       30.35F WCI  33

$$

IAZ060-094-KSZ022-034>040-054-083-096-NEZ052-066-093-022100-
...KANSAS...SOUTHEAST NEBRASKA AND IOWA...

CITY           SKY/WX    TMP DP  RH WIND       PRES   REMARKS
TOPEKA         MOSUNNY   39  19  44 SE15      30.32F WCI  31
MANHATTAN      PTSUNNY   40  19  43 SE16G28   30.27F WCI  31
EMPORIA        CLOUDY    34  19  54 SE14      30.27F WCI  25
CHANUTE        CLOUDY    37  22  54 E10       30.30F WCI  30
WICHITA        CLOUDY    35  19  52 SE10      30.24F WCI  27
OMAHA          CLOUDY    39  20  46 S17       30.28F WCI  30
LINCOLN        CLOUDY    43  20  39 S23       30.26F WCI  34
FALLS CITY     PTSUNNY   42  20  41 SE15G22   30.30F WCI  34
LAMONI         MOSUNNY   34  17  50 SE9       30.35F WCI  27
DES MOINES     CLOUDY    31  15  52 SE7       30.38F WCI  24

$$




USA.gov is the U.S. government's official web portal to all federal, state and local government web resources and services.